When you browse on this site, cookies collect data to enhance your experience and personalize the content and advertising you see.
Visit our Privacy Policy to learn more. By continuing to use the site, you agree to this use of cookies and data.
  • în România
  • Lista ţărilor
  • Pe 7 zile
  • Temperatura apei
  • Meteo pe hartă
  • Widget-uri
  • user-avatar
    Intrare

    Meteo pe oră la Fier

    Astăzi, 27 Mai, Miercuri

    Timp Temperatura Precipitaţii Vânt Presiune Umiditate
    00:00 +14°C° 0 mm 3 m/s 763 mmHg 67%
    01:00 +14°C° 0 mm 2 m/s 763 mmHg 69%
    02:00 +14°C° 0 mm 2 m/s 763 mmHg 69%
    03:00 +14°C° 0 mm 2 m/s 763 mmHg 70%
    04:00 +13°C° 0 mm 3 m/s 763 mmHg 70%
    05:00 +14°C° 0 mm 3 m/s 763 mmHg 66%
    06:00 +16°C° 0 mm 3 m/s 763 mmHg 62%
    07:00 +17°C° 0 mm 3 m/s 763 mmHg 59%
    08:00 +19°C° 0 mm 3 m/s 763 mmHg 53%
    09:00 +20°C° 0 mm 3 m/s 763 mmHg 48%
    10:00 +21°C° 0 mm 3 m/s 764 mmHg 43%
    11:00 +22°C° 0 mm 4 m/s 763 mmHg 43%
    12:00 +22°C° 0 mm 5 m/s 763 mmHg 43%
    13:00 +23°C° 0 mm 5 m/s 763 mmHg 43%
    14:00 +22°C° 0.2 mm 6 m/s 763 mmHg 46%
    15:00 +22°C° 0.2 mm 7 m/s 763 mmHg 50%
    16:00 +21°C° 0.2 mm 8 m/s 763 mmHg 53%
    17:00 +20°C° 0.2 mm 7 m/s 763 mmHg 60%
    18:00 +17°C° 0.2 mm 5 m/s 763 mmHg 66%
    19:00 +17°C° 0.2 mm 4 m/s 763 mmHg 72%
    20:00 +17°C° 0.1 mm 3 m/s 763 mmHg 74%
    21:00 +16°C° 0.1 mm 3 m/s 764 mmHg 75%
    22:00 +15°C° 0.1 mm 2 m/s 764 mmHg 77%
    23:00 +15°C° 0 mm 2 m/s 764 mmHg 76%

    Mâine, 28 Mai, Joi

    Timp Temperatura Precipitaţii Vânt Presiune Umiditate
    00:00 +15°C° 0 mm 2 m/s 764 mmHg 76%
    01:00 +15°C° 0 mm 2 m/s 764 mmHg 75%
    02:00 +14°C° 0 mm 2 m/s 763 mmHg 74%
    03:00 +14°C° 0 mm 2 m/s 763 mmHg 74%
    04:00 +14°C° 0 mm 2 m/s 763 mmHg 73%
    05:00 +15°C° 0 mm 2 m/s 763 mmHg 68%
    06:00 +16°C° 0 mm 2 m/s 763 mmHg 64%
    07:00 +19°C° 0 mm 1 m/s 763 mmHg 59%
    08:00 +19°C° 0 mm 2 m/s 763 mmHg 56%
    09:00 +20°C° 0 mm 3 m/s 763 mmHg 52%
    10:00 +21°C° 0 mm 3 m/s 763 mmHg 49%
    11:00 +22°C° 0 mm 4 m/s 762 mmHg 49%
    12:00 +22°C° 0 mm 4 m/s 762 mmHg 48%
    13:00 +23°C° 0 mm 5 m/s 761 mmHg 48%
    14:00 +22°C° 0 mm 5 m/s 761 mmHg 51%
    15:00 +22°C° 0 mm 5 m/s 761 mmHg 53%
    16:00 +21°C° 0 mm 5 m/s 761 mmHg 56%
    17:00 +20°C° 0 mm 4 m/s 761 mmHg 62%
    18:00 +19°C° 0 mm 3 m/s 761 mmHg 69%
    19:00 +17°C° 0 mm 2 m/s 761 mmHg 75%
    20:00 +17°C° 0 mm 2 m/s 761 mmHg 77%
    21:00 +16°C° 0 mm 2 m/s 762 mmHg 79%
    22:00 +16°C° 0 mm 1 m/s 762 mmHg 80%
    23:00 +16°C° 0 mm 1 m/s 761 mmHg 79%

    Poimâine, 29 Mai, Vineri

    Timp Temperatura Precipitaţii Vânt Presiune Umiditate
    00:00 +15°C° 0 mm 1 m/s 761 mmHg 78%
    01:00 +15°C° 0 mm 2 m/s 761 mmHg 78%
    02:00 +15°C° 0.1 mm 2 m/s 761 mmHg 77%
    03:00 +15°C° 0.1 mm 2 m/s 761 mmHg 75%
    04:00 +15°C° 0.1 mm 2 m/s 761 mmHg 74%
    05:00 +16°C° 0.1 mm 2 m/s 761 mmHg 71%
    06:00 +18°C° 0.1 mm 2 m/s 761 mmHg 67%
    07:00 +19°C° 0.1 mm 2 m/s 761 mmHg 63%
    08:00 +20°C° 0.1 mm 2 m/s 761 mmHg 58%
    09:00 +23°C° 0.1 mm 2 m/s 761 mmHg 53%
    10:00 +24°C° 0.1 mm 1 m/s 761 mmHg 48%
    11:00 +24°C° 0.2 mm 2 m/s 761 mmHg 49%
    12:00 +24°C° 0.2 mm 3 m/s 760 mmHg 50%
    13:00 +23°C° 0.2 mm 4 m/s 760 mmHg 51%
    14:00 +23°C° 0.1 mm 4 m/s 760 mmHg 52%
    15:00 +23°C° 0.1 mm 4 m/s 760 mmHg 53%
    16:00 +22°C° 0.1 mm 3 m/s 760 mmHg 54%
    17:00 +21°C° 0 mm 3 m/s 760 mmHg 60%
    18:00 +19°C° 0 mm 2 m/s 760 mmHg 67%
    19:00 +18°C° 0 mm 2 m/s 760 mmHg 73%
    20:00 +18°C° 0 mm 1 m/s 760 mmHg 75%
    21:00 +18°C° 0 mm 1 m/s 761 mmHg 76%
    22:00 +16°C° 0 mm 1 m/s 761 mmHg 78%
    23:00 +16°C° 0 mm 1 m/s 761 mmHg 79%

    30 Mai, Sâmbătă

    Timp Temperatura Precipitaţii Vânt Presiune Umiditate
    00:00 +16°C° 0 mm 2 m/s 761 mmHg 80%
    01:00 +16°C° 0 mm 2 m/s 761 mmHg 81%
    02:00 +16°C° 0 mm 2 m/s 760 mmHg 81%
    03:00 +16°C° 0 mm 3 m/s 760 mmHg 81%
    04:00 +16°C° 0 mm 3 m/s 760 mmHg 81%
    05:00 +17°C° 0 mm 2 m/s 760 mmHg 77%
    06:00 +17°C° 0 mm 2 m/s 761 mmHg 73%
    07:00 +19°C° 0 mm 1 m/s 761 mmHg 69%
    08:00 +21°C° 0 mm 1 m/s 761 mmHg 62%
    09:00 +22°C° 0 mm 1 m/s 761 mmHg 56%
    10:00 +23°C° 0 mm 2 m/s 761 mmHg 50%
    11:00 +23°C° 0.2 mm 2 m/s 761 mmHg 51%
    12:00 +22°C° 0.2 mm 3 m/s 760 mmHg 53%
    13:00 +22°C° 0.2 mm 4 m/s 760 mmHg 54%
    14:00 +22°C° 0.3 mm 4 m/s 760 mmHg 56%
    15:00 +22°C° 0.3 mm 3 m/s 760 mmHg 57%
    16:00 +21°C° 0.3 mm 3 m/s 760 mmHg 59%
    17:00 +20°C° 0.2 mm 2 m/s 760 mmHg 64%
    18:00 +19°C° 0.2 mm 2 m/s 760 mmHg 69%
    19:00 +19°C° 0.2 mm 1 m/s 760 mmHg 74%
    20:00 +18°C° 0.2 mm 1 m/s 760 mmHg 75%
    21:00 +17°C° 0.2 mm 2 m/s 760 mmHg 76%
    22:00 +17°C° 0.2 mm 2 m/s 760 mmHg 77%
    23:00 +16°C° 0.1 mm 2 m/s 760 mmHg 77%

    31 Mai, Duminică

    Timp Temperatura Precipitaţii Vânt Presiune Umiditate
    00:00 +16°C° 0.1 mm 2 m/s 760 mmHg 77%
    01:00 +16°C° 0.1 mm 2 m/s 759 mmHg 76%
    02:00 +16°C° 0.1 mm 2 m/s 759 mmHg 77%
    03:00 +16°C° 0.1 mm 2 m/s 759 mmHg 77%
    04:00 +16°C° 0.1 mm 2 m/s 759 mmHg 77%
    05:00 +17°C° 0 mm 2 m/s 759 mmHg 74%
    06:00 +17°C° 0 mm 2 m/s 759 mmHg 72%
    07:00 +19°C° 0 mm 1 m/s 759 mmHg 69%
    08:00 +19°C° 0.2 mm 2 m/s 759 mmHg 64%
    09:00 +21°C° 0.2 mm 2 m/s 759 mmHg 60%
    10:00 +23°C° 0.2 mm 2 m/s 759 mmHg 55%
    11:00 +23°C° 0.4 mm 2 m/s 759 mmHg 55%
    12:00 +22°C° 0.4 mm 3 m/s 759 mmHg 54%
    13:00 +24°C° 0.4 mm 3 m/s 759 mmHg 53%
    14:00 +22°C° 0.2 mm 3 m/s 758 mmHg 54%
    15:00 +22°C° 0.2 mm 3 m/s 758 mmHg 56%
    16:00 +22°C° 0.2 mm 4 m/s 758 mmHg 57%
    17:00 +20°C° 0.1 mm 3 m/s 758 mmHg 63%
    18:00 +19°C° 0.1 mm 2 m/s 758 mmHg 69%
    19:00 +19°C° 0.1 mm 1 m/s 758 mmHg 76%
    20:00 +18°C° 0 mm 1 m/s 759 mmHg 77%
    21:00 +18°C° 0 mm 1 m/s 759 mmHg 79%
    22:00 +15°C° 0 mm 0 m/s 759 mmHg 81%
    23:00 +16°C° 0 mm 1 m/s 759 mmHg 82%

    1 Iunie, Luni

    Timp Temperatura Precipitaţii Vânt Presiune Umiditate
    00:00 +16°C° 0 mm 1 m/s 759 mmHg 82%
    01:00 +15°C° 0 mm 1 m/s 759 mmHg 83%
    02:00 +15°C° 0 mm 1 m/s 759 mmHg 83%
    03:00 +15°C° 0 mm 1 m/s 758 mmHg 83%
    04:00 +14°C° 0 mm 1 m/s 758 mmHg 83%
    05:00 +16°C° 0 mm 1 m/s 758 mmHg 78%
    06:00 +18°C° 0 mm 1 m/s 758 mmHg 72%
    07:00 +20°C° 0 mm 1 m/s 759 mmHg 67%
    08:00 +21°C° 0 mm 1 m/s 759 mmHg 62%
    09:00 +21°C° 0 mm 2 m/s 759 mmHg 58%
    10:00 +23°C° 0 mm 2 m/s 758 mmHg 53%
    11:00 +24°C° 0 mm 3 m/s 758 mmHg 53%
    12:00 +24°C° 0 mm 3 m/s 758 mmHg 53%
    13:00 +23°C° 0 mm 4 m/s 757 mmHg 53%
    14:00 +23°C° 0 mm 4 m/s 757 mmHg 55%
    15:00 +23°C° 0 mm 4 m/s 757 mmHg 56%
    16:00 +22°C° 0 mm 4 m/s 757 mmHg 58%
    17:00 +21°C° 0 mm 3 m/s 757 mmHg 65%
    18:00 +19°C° 0 mm 2 m/s 757 mmHg 71%
    19:00 +18°C° 0 mm 2 m/s 757 mmHg 77%
    20:00 +17°C° 0 mm 2 m/s 758 mmHg 80%
    21:00 +18°C° 0 mm 1 m/s 758 mmHg 82%
    22:00 +16°C° 0 mm 1 m/s 758 mmHg 84%
    23:00 +16°C° 0 mm 1 m/s 758 mmHg 83%
    Arată mai mult